QPF
0.00 0.00 0.00 0.00 0.00 0.00 0.00 0.00 0.00 0.00 0.00 0.00 0.00 0.00 0.00 0.00 0.00 0.00 0.00 0.00 0.00 0.02 0.00 0.01 0.02 0.01 0.00 0.00 0.00 0.00 0.00 0.00 0.00 0.00 0.00 0.00 0.00 0.00 0.00 0.00 0.00 0.00 0.00
0.00 0.00 0.00 0.00 0.00 0.00 0.00 0.00 0.00 0.00 0.00 0.00 0.00 0.00 0.00 0.00 0.00 0.00 0.00 0.01 0.03 0.01 0.00 0.00 0.00 0.00 0.00 0.00 0.00 0.00 0.00 0.00 0.00 0.00 0.00 0.00 0.00 0.00 0.00 0.00 0.00 0.00 0.00
0.00 0.00 0.00 0.00 0.00 0.00 0.00 0.00 0.00 0.00 0.00 0.00 0.00 0.00 0.00 0.00 0.00 0.00 0.00 0.01 0.00 0.00 0.00 0.00 0.00 0.00 0.00 0.00 0.00 0.00 0.00 0.00 0.00 0.00 0.00 0.00 0.00 0.00 0.00 0.00 0.00 0.00 0.00
0.00 0.00 0.00 0.00 0.00 0.00 0.00 0.00 0.00 0.00 0.00 0.00 0.00 0.00 0.00 0.00 0.00 0.00 0.00 0.00 0.00 0.00 0.00 0.00 0.00 0.00 0.00 0.00 0.00 0.00 0.00 0.00 0.00 0.00 0.00 0.00 0.00 0.00 0.00 0.00 0.00 0.00 0.00
0.00 0.00 0.00 0.00 0.00 0.00 0.00 0.00 0.00 0.00 0.00 0.00 0.00 0.00 0.00 0.00 0.00 0.00 0.00 0.00 0.00 0.00 0.00 0.00 0.00 0.00 0.00 0.00 0.00 0.00 0.00 0.00 0.00 0.00 0.00 0.00 0.00 0.00 0.00 0.00 0.00 0.00 0.00
0.00 0.00 0.00 0.00 0.00 0.00 0.00 0.00 0.00 0.00 0.00 0.00 0.00 0.00 0.00 0.00 0.00 0.00 0.00 0.00 0.00 0.00 0.00 0.00 0.00 0.00 0.00 0.00 0.00 0.00 0.00 0.00 0.00 0.00 0.00 0.00 0.00 0.00 0.00 0.00 0.00 0.00 0.00
0.00 0.00 0.00 0.00 0.00 0.00 0.00 0.00 0.00 0.00 0.00 0.00 0.00 0.00 0.00 0.00 0.00 0.00 0.00 0.00 0.00 0.00 0.00 0.00 0.00 0.00 0.00 0.00 0.00 0.00 0.00 0.00 0.00 0.00 0.00 0.00 0.00 0.00 0.00 0.00 0.00 0.00 0.00
0.00 0.00 0.00 0.00 0.00 0.00 0.00 0.00 0.00 0.00 0.00 0.00 0.00 0.00 0.00 0.00 0.00 0.00 0.00 0.00 0.00 0.00 0.00 0.00 0.00 0.00 0.00 0.00 0.00 0.00 0.00 0.00 0.00 0.00 0.00 0.00 0.00 0.00 0.00 0.00 0.00 0.00 0.00
0.00 0.00 0.00 0.00 0.00 0.00 0.00 0.00 0.00 0.00 0.00 0.00 0.00 0.00 0.00 0.00 0.00 0.00 0.00 0.00 0.00 0.00 0.00 0.00 0.00 0.00 0.00 0.00 0.00 0.00 0.00 0.00 0.00 0.00 0.00 0.00 0.00 0.00 0.00 0.00 0.00 0.00 0.00
0.00 0.00 0.00 0.00 0.00 0.00 0.00 0.00 0.00 0.00 0.00 0.00 0.00 0.00 0.00 0.00 0.00 0.00 0.00 0.00 0.00 0.00 0.00 0.00 0.00 0.00 0.00 0.00 0.00 0.00 0.00 0.00 0.00 0.00 0.00 0.00 0.00 0.00 0.00 0.00 0.00 0.00 0.00
0.00 0.00 0.00 0.00 0.00 0.00 0.00 0.00 0.00 0.00 0.00 0.00 0.00 0.00 0.00 0.00 0.00 0.00 0.00 0.00 0.00 0.00 0.00 0.00 0.00 0.00 0.00 0.00 0.00 0.00 0.00 0.00 0.00 0.00 0.00 0.00 0.00 0.00 0.00 0.00 0.00 0.00 0.00
0.00 0.00 0.00 0.00 0.00 0.00 0.00 0.00 0.00 0.00 0.00 0.00 0.00 0.00 0.00 0.00 0.00 0.00 0.00 0.00 0.00 0.00 0.00 0.00 0.00 0.00 0.00 0.00 0.00 0.00 0.00 0.00 0.00 0.00 0.00 0.00 0.00 0.00 0.00 0.00 0.00 0.00 0.00
0.00 0.00 0.00 0.00 0.00 0.00 0.00 0.00 0.00 0.00 0.00 0.00 0.00 0.00 0.00 0.00 0.00 0.00 0.00 0.00 0.00 0.00 0.00 0.00 0.00 0.00 0.00 0.00 0.00 0.00 0.00 0.00 0.00 0.00 0.00 0.00 0.00 0.00 0.00 0.00 0.00 0.00 0.00
0.00 0.00 0.00 0.00 0.00 0.00 0.00 0.00 0.00 0.00 0.00 0.00 0.00 0.00 0.00 0.00 0.00 0.00 0.00 0.00 0.00 0.00 0.00 0.00 0.00 0.00 0.00 0.00 0.00 0.00 0.00 0.00 0.00 0.00 0.00 0.00 0.00 0.00 0.00 0.00 0.00 0.00 0.00
0.00 0.00 0.00 0.00 0.00 0.00 0.00 0.00 0.00 0.00 0.00 0.00 0.00 0.00 0.00 0.00 0.00 0.00 0.00 0.00 0.00 0.00 0.00 0.00 0.00 0.00 0.00 0.00 0.00 0.00 0.00 0.00 0.00 0.00 0.00 0.00 0.00 0.00 0.00 0.00 0.00 0.00 0.00
0.00 0.00 0.00 0.00 0.00 0.00 0.00 0.00 0.00 0.00 0.00 0.00 0.00 0.00 0.00 0.00 0.00 0.00 0.00 0.00 0.00 0.00 0.00 0.00 0.00 0.00 0.00 0.00 0.00 0.00 0.00 0.00 0.00 0.00 0.00 0.00 0.00 0.00 0.00 0.00 0.00 0.00 0.00
0.00 0.00 0.00 0.00 0.00 0.00 0.00 0.00 0.00 0.00 0.00 0.00 0.00 0.00 0.00 0.00 0.00 0.00 0.00 0.00 0.00 0.00 0.00 0.00 0.00 0.00 0.00 0.00 0.00 0.00 0.00 0.00 0.00 0.00 0.00 0.00 0.00 0.00 0.00 0.00 0.00 0.00 0.00
0.00 0.00 0.00 0.00 0.00 0.00 0.00 0.00 0.00 0.00 0.00 0.00 0.01 0.01 0.00 0.00 0.00 0.00 0.00 0.00 0.00 0.00 0.00 0.00 0.00 0.00 0.00 0.00 0.00 0.00 0.00 0.00 0.00 0.00 0.00 0.00 0.00 0.00 0.00 0.00 0.00 0.00 0.00
0.00 0.00 0.00 0.00 0.00 0.00 0.00 0.00 0.00 0.00 0.00 0.00 0.00 0.00 0.00 0.00 0.00 0.00 0.00 0.00 0.00 0.00 0.00 0.00 0.00 0.00 0.00 0.00 0.00 0.00 0.00 0.00 0.00 0.00 0.00 0.00 0.00 0.00 0.00 0.00 0.00 0.00 0.00
0.00 0.00 0.00 0.00 0.00 0.00 0.00 0.00 0.00 0.00 0.00 0.01 0.01 0.01 0.00 0.00 0.00 0.00 0.00 0.00 0.00 0.00 0.00 0.00 0.00 0.00 0.00 0.00 0.00 0.00 0.00 0.00 0.00 0.00 0.00 0.00 0.00 0.00 0.00 0.00 0.00 0.00 0.00
0.00 0.00 0.00 0.00 0.00 0.00 0.00 0.00 0.00 0.00 0.01 0.01 0.02 0.02 0.01 0.00 0.00 0.00 0.00 0.00 0.00 0.00 0.00 0.00 0.00 0.00 0.00 0.00 0.00 0.00 0.00 0.00 0.00 0.00 0.00 0.00 0.00 0.00 0.00 0.00 0.00 0.00 0.00
0.00 0.00 0.00 0.00 0.00 0.00 0.00 0.00 0.00 0.00 0.01 0.01 0.02 0.03 0.03 0.01 0.00 0.00 0.00 0.00 0.00 0.00 0.00 0.00 0.00 0.00 0.00 0.00 0.00 0.00 0.00 0.00 0.00 0.00 0.00 0.00 0.00 0.00 0.00 0.00 0.00 0.00 0.00
0.00 0.00 0.00 0.00 0.00 0.00 0.00 0.00 0.01 0.02 0.02 0.02 0.03 0.06 0.03 0.01 0.01 0.00 0.00 0.00 0.00 0.00 0.00 0.00 0.00 0.00 0.00 0.00 0.00 0.00 0.00 0.00 0.00 0.00 0.00 0.00 0.00 0.00 0.00 0.00 0.00 0.00 0.00
0.00 0.00 0.00 0.00 0.01 0.01 0.00 0.01 0.01 0.09 0.04 0.02 0.03 0.05 0.03 0.01 0.01 0.02 0.00 0.00 0.00 0.00 0.00 0.00 0.00 0.00 0.00 0.00 0.00 0.00 0.00 0.00 0.00 0.00 0.00 0.00 0.00 0.00 0.00 0.00 0.00 0.00 0.00
0.00 0.00 0.00 0.00 0.00 0.00 0.01 0.00 0.01 0.04 0.03 0.01 0.01 0.03 0.04 0.03 0.02 0.03 0.00 0.00 0.00 0.00 0.00 0.00 0.00 0.00 0.00 0.00 0.00 0.00 0.00 0.00 0.00 0.00 0.00 0.00 0.00 0.00 0.00 0.00 0.00 0.00 0.00
0.00 0.00 0.00 0.00 0.00 0.00 0.01 0.01 0.00 0.00 0.01 0.01 0.01 0.04 0.06 0.05 0.05 0.04 0.00 0.00 0.00 0.00 0.00 0.00 0.00 0.00 0.00 0.00 0.00 0.00 0.00 0.00 0.00 0.00 0.00 0.00 0.00 0.00 0.00 0.00 0.00 0.00 0.00
MSLP
1010.93 1011.55 1012.14 1012.60 1013.08 1013.67 1013.96 1014.07 1014.21 1014.40 1014.64 1014.64 1014.93 1015.02 1014.80 1014.74 1014.68 1014.76 1014.76 1014.84 1014.90 1015.37 1015.78 1016.26 1016.49 1016.76 1017.09 1017.14 1016.85 1016.58 1016.41 1016.32 1016.29 1017.36 1017.66 1017.84 1017.72 1017.58 1017.15 1016.81 1016.26 1015.91 1015.64
1010.02 1010.78 1011.39 1011.95 1012.60 1013.07 1013.40 1013.54 1013.70 1013.86 1014.22 1014.39 1014.60 1014.58 1014.44 1014.42 1014.42 1014.45 1014.46 1014.72 1014.85 1015.43 1015.98 1016.23 1016.71 1016.90 1017.16 1017.06 1017.03 1017.29 1017.31 1017.19 1017.11 1017.64 1017.98 1017.74 1017.78 1017.53 1017.23 1016.80 1016.44 1015.86 1015.80
1009.42 1010.20 1010.87 1011.45 1012.12 1012.52 1012.80 1013.06 1013.28 1013.42 1013.67 1013.98 1014.10 1014.08 1014.02 1014.05 1014.09 1014.22 1014.41 1014.77 1015.19 1015.60 1016.00 1016.10 1016.58 1017.13 1017.28 1017.54 1017.58 1017.62 1017.80 1017.96 1018.00 1017.85 1017.86 1018.00 1017.84 1017.60 1016.92 1016.42 1016.34 1016.08 1015.71
1008.90 1009.59 1010.20 1010.71 1011.28 1011.78 1012.19 1012.59 1012.84 1013.02 1013.21 1013.39 1013.47 1013.58 1013.61 1013.73 1013.86 1014.03 1014.49 1014.88 1015.59 1015.86 1016.02 1016.32 1017.03 1017.47 1017.76 1018.11 1018.28 1018.32 1018.46 1018.23 1018.40 1018.20 1018.09 1018.10 1017.93 1017.66 1017.10 1016.50 1016.04 1016.08 1015.99
1008.32 1008.99 1009.37 1009.92 1010.65 1011.25 1011.65 1012.02 1012.32 1012.55 1012.74 1012.91 1012.97 1013.07 1013.24 1013.41 1013.57 1014.08 1014.60 1015.23 1015.69 1015.96 1016.57 1017.04 1017.56 1017.87 1018.19 1018.44 1018.50 1018.76 1018.71 1018.52 1018.55 1018.49 1018.41 1018.31 1018.36 1017.98 1017.34 1017.05 1016.49 1016.61 1016.13
1007.68 1008.20 1008.88 1009.50 1010.10 1010.63 1011.00 1011.40 1011.81 1012.07 1012.30 1012.48 1012.57 1012.74 1012.90 1013.06 1013.58 1014.21 1014.81 1015.46 1015.78 1016.37 1016.95 1017.62 1018.20 1018.46 1018.86 1019.06 1019.38 1019.44 1019.26 1019.24 1019.41 1019.22 1019.02 1018.96 1019.08 1018.91 1018.46 1017.79 1017.22 1016.98 1016.44
1006.92 1007.78 1008.51 1009.07 1009.56 1010.08 1010.46 1010.93 1011.26 1011.57 1011.77 1011.96 1012.21 1012.52 1012.69 1013.29 1013.96 1014.50 1015.03 1015.57 1015.94 1016.61 1017.19 1017.72 1017.92 1018.75 1019.15 1019.50 1019.75 1019.80 1019.96 1019.96 1020.00 1019.86 1019.80 1019.77 1019.58 1019.60 1019.11 1018.27 1018.02 1017.44 1017.41
1006.45 1007.22 1007.95 1008.52 1008.97 1009.54 1010.04 1010.40 1010.86 1011.20 1011.35 1011.52 1011.90 1012.27 1012.76 1013.81 1014.31 1014.76 1015.30 1015.84 1016.30 1016.88 1017.42 1017.98 1018.39 1019.04 1019.27 1019.50 1019.73 1019.87 1019.92 1020.12 1020.33 1020.12 1020.24 1020.27 1020.12 1019.97 1019.50 1018.56 1018.04 1017.02 1017.46
1005.72 1006.52 1007.24 1007.89 1008.42 1009.00 1009.54 1009.96 1010.43 1010.80 1011.06 1011.24 1011.61 1012.24 1013.08 1014.27 1014.59 1015.06 1015.40 1016.12 1016.68 1017.22 1017.87 1018.39 1018.84 1019.20 1019.59 1019.92 1019.93 1020.15 1020.32 1020.66 1021.23 1021.14 1020.98 1020.91 1020.71 1020.43 1019.96 1018.64 1017.97 1017.10 1016.58
1005.14 1005.92 1006.67 1007.30 1007.93 1008.42 1008.88 1009.50 1009.98 1010.44 1010.71 1010.88 1011.56 1012.32 1013.34 1014.43 1015.08 1015.29 1015.65 1016.14 1016.83 1017.36 1018.19 1018.88 1019.34 1019.53 1019.90 1020.32 1020.26 1020.28 1020.39 1020.74 1020.69 1020.57 1020.46 1020.42 1020.26 1020.01 1019.81 1019.32 1018.95 1018.17 1017.84
1004.80 1005.45 1006.22 1006.80 1007.28 1007.84 1008.54 1009.18 1009.57 1009.98 1010.37 1011.02 1011.81 1012.74 1013.63 1014.46 1015.33 1015.61 1015.91 1016.25 1016.67 1017.24 1017.87 1018.61 1019.36 1019.93 1020.28 1020.71 1020.74 1020.74 1020.84 1020.80 1020.96 1020.79 1020.55 1020.35 1020.12 1019.87 1019.68 1019.81 1019.92 1019.48 1019.37
1004.50 1005.08 1005.81 1006.50 1006.96 1007.58 1008.21 1008.76 1009.24 1009.86 1010.52 1011.26 1012.08 1013.05 1013.99 1014.82 1015.52 1015.99 1016.22 1016.43 1016.92 1017.19 1017.78 1018.47 1019.45 1020.23 1020.66 1021.10 1021.13 1021.49 1021.37 1021.07 1020.97 1020.92 1020.65 1020.50 1020.35 1020.24 1020.41 1020.62 1020.87 1020.80 1020.78
1004.41 1004.90 1005.59 1006.30 1006.83 1007.44 1007.94 1008.38 1009.15 1009.81 1010.49 1011.34 1012.10 1013.02 1014.10 1014.93 1015.89 1016.39 1016.69 1017.02 1017.46 1017.72 1018.22 1018.78 1019.63 1020.42 1021.05 1021.43 1021.49 1021.70 1021.23 1021.19 1021.10 1020.95 1020.93 1020.97 1021.13 1021.17 1020.82 1020.59 1020.72 1020.69 1020.90
1004.32 1004.87 1005.49 1005.98 1006.57 1007.07 1007.53 1008.10 1008.72 1009.34 1010.09 1010.92 1011.68 1012.72 1013.99 1014.99 1015.90 1016.62 1017.20 1017.64 1017.98 1018.34 1018.82 1019.42 1019.92 1020.32 1020.52 1021.16 1021.59 1021.68 1021.40 1021.33 1021.31 1021.42 1021.58 1021.70 1021.50 1021.25 1021.05 1020.81 1020.70 1020.68 1020.58
1004.16 1004.64 1005.11 1005.65 1006.32 1006.89 1007.29 1007.85 1008.18 1008.62 1009.10 1009.70 1010.69 1011.67 1012.88 1014.24 1015.14 1015.70 1016.32 1017.12 1017.64 1018.22 1018.80 1019.46 1019.66 1019.98 1020.40 1020.77 1021.05 1021.34 1021.60 1021.71 1021.72 1021.87 1022.01 1021.89 1021.81 1021.74 1021.73 1021.49 1021.27 1021.14 1021.07
1003.87 1004.32 1004.72 1005.26 1006.01 1006.72 1007.80 1008.61 1009.07 1008.80 1009.36 1010.00 1010.40 1010.71 1012.13 1012.94 1013.77 1015.08 1015.92 1016.69 1017.46 1018.31 1018.58 1018.78 1019.12 1019.49 1019.90 1020.26 1020.64 1021.02 1021.49 1021.82 1022.06 1022.11 1022.25 1022.32 1022.40 1022.27 1022.14 1022.08 1021.74 1021.62 1021.69
1004.12 1004.42 1004.91 1005.49 1006.41 1007.16 1007.75 1008.33 1009.26 1010.24 1010.27 1009.95 1010.85 1011.60 1011.82 1012.47 1014.25 1014.98 1016.44 1016.80 1017.21 1018.02 1018.01 1018.35 1018.66 1018.98 1019.50 1019.92 1020.19 1020.38 1021.06 1021.66 1022.21 1022.34 1022.54 1022.63 1022.56 1022.58 1022.33 1022.43 1022.39 1022.20 1022.21
1004.81 1005.18 1005.42 1006.02 1006.41 1007.03 1007.66 1008.18 1008.95 1009.78 1010.30 1010.92 1011.53 1012.37 1012.65 1013.44 1014.08 1015.10 1016.00 1017.43 1018.36 1017.96 1017.54 1017.85 1018.22 1018.57 1019.00 1019.40 1019.77 1020.12 1020.92 1021.69 1022.01 1022.39 1022.62 1022.75 1022.97 1022.93 1022.81 1022.82 1023.04 1022.96 1022.76
1005.73 1005.82 1005.76 1006.29 1006.68 1007.04 1007.58 1008.07 1008.55 1009.36 1010.02 1010.74 1011.90 1012.78 1013.95 1014.28 1014.88 1014.83 1015.33 1015.67 1016.39 1016.92 1017.09 1017.46 1017.90 1018.40 1018.78 1019.26 1019.66 1020.03 1020.67 1021.30 1021.84 1022.27 1022.56 1022.84 1023.07 1023.21 1023.32 1023.62 1023.65 1023.85 1023.72
1006.39 1006.50 1006.26 1006.19 1006.80 1007.09 1007.39 1008.04 1008.34 1008.92 1009.80 1010.57 1011.37 1012.21 1013.55 1014.66 1015.59 1015.86 1015.12 1014.86 1015.58 1016.10 1016.58 1016.94 1017.58 1018.12 1018.46 1018.82 1019.28 1019.61 1020.30 1021.20 1021.84 1022.18 1022.55 1022.88 1023.15 1023.25 1023.62 1023.78 1023.73 1023.95 1024.04
1007.93 1007.24 1006.82 1006.71 1006.61 1006.63 1006.94 1007.70 1008.07 1008.73 1009.18 1009.87 1010.58 1011.16 1011.85 1012.16 1013.57 1014.47 1014.52 1014.46 1014.95 1015.17 1016.02 1016.42 1017.11 1017.74 1018.30 1018.80 1019.28 1019.59 1019.80 1020.43 1021.15 1021.72 1022.46 1022.84 1023.10 1023.26 1023.70 1024.08 1024.32 1024.26 1024.43
1008.64 1008.11 1007.28 1006.98 1006.89 1007.19 1007.02 1007.46 1007.96 1008.52 1009.10 1009.64 1009.96 1010.93 1011.77 1011.93 1012.31 1013.04 1013.74 1013.52 1014.00 1014.48 1014.69 1015.83 1016.36 1016.96 1017.62 1018.14 1018.76 1019.34 1019.62 1019.98 1020.64 1021.30 1021.96 1022.51 1022.97 1023.21 1023.63 1023.98 1024.26 1024.64 1024.76
1009.42 1008.78 1008.25 1007.70 1007.51 1007.31 1007.26 1007.39 1007.80 1008.19 1008.54 1009.14 1009.82 1011.00 1011.55 1011.69 1011.77 1012.01 1012.34 1013.05 1012.83 1014.20 1014.62 1015.09 1015.72 1016.35 1016.89 1017.71 1018.22 1018.46 1018.73 1019.35 1020.09 1020.55 1021.25 1022.10 1022.71 1023.06 1023.33 1023.81 1024.16 1024.48 1024.75
1010.37 1009.93 1009.46 1008.70 1007.97 1007.38 1007.39 1007.34 1007.76 1008.02 1008.20 1008.58 1009.09 1009.98 1010.64 1010.70 1010.84 1010.99 1011.41 1011.86 1012.42 1013.00 1013.90 1014.52 1014.97 1015.62 1016.53 1017.25 1017.70 1018.16 1018.43 1019.05 1019.62 1020.40 1020.73 1021.21 1022.14 1023.01 1023.08 1023.43 1023.86 1024.54 1025.06
1011.43 1010.83 1010.04 1009.53 1009.04 1008.46 1007.66 1007.36 1007.52 1007.74 1007.90 1008.01 1008.28 1008.92 1009.60 1010.07 1010.51 1010.38 1010.56 1010.92 1011.50 1012.23 1012.87 1013.68 1014.51 1015.07 1015.80 1016.59 1016.91 1017.42 1017.98 1018.88 1019.25 1019.66 1020.44 1020.72 1021.26 1022.20 1022.71 1023.14 1023.68 1024.17 1024.36
1012.35 1011.60 1011.11 1010.65 1010.25 1009.33 1008.24 1007.93 1007.46 1007.36 1007.44 1007.59 1007.76 1008.11 1008.66 1009.28 1009.56 1009.88 1009.75 1010.23 1010.60 1011.50 1012.24 1012.98 1013.58 1014.32 1015.02 1015.74 1016.41 1016.92 1017.96 1018.76 1019.30 1019.58 1019.72 1020.24 1020.75 1021.42 1022.06 1022.60 1023.31 1023.70 1024.28
Thickness
5833 5831 5828 5827 5825 5820 5819 5819 5817 5816 5814 5814 5811 5808 5807 5805 5802 5797 5793 5788 5783 5773 5763 5750 5740 5732 5720 5711 5705 5699 5688 5679 5666 5649 5637 5626 5617 5609 5603 5597 5594 5590 5586
5839 5835 5832 5831 5828 5824 5822 5822 5823 5820 5818 5817 5815 5813 5812 5809 5805 5800 5795 5789 5783 5770 5758 5749 5738 5730 5718 5711 5702 5689 5678 5669 5659 5640 5629 5623 5615 5607 5599 5594 5588 5585 5580
5843 5837 5834 5832 5828 5826 5826 5826 5825 5825 5823 5821 5819 5818 5816 5813 5808 5803 5797 5789 5779 5769 5758 5750 5738 5726 5715 5705 5697 5685 5673 5661 5649 5639 5628 5621 5613 5604 5599 5593 5587 5582 5579
5845 5840 5837 5835 5833 5831 5830 5828 5828 5828 5827 5826 5825 5823 5821 5817 5812 5806 5797 5788 5775 5767 5759 5749 5734 5722 5712 5700 5689 5680 5667 5658 5645 5636 5628 5619 5611 5604 5598 5593 5589 5582 5577
5847 5843 5841 5840 5837 5834 5833 5832 5832 5831 5831 5830 5829 5827 5825 5820 5815 5806 5796 5785 5774 5766 5754 5742 5730 5720 5709 5699 5689 5677 5667 5656 5645 5635 5626 5619 5607 5602 5598 5592 5588 5580 5581
5849 5846 5845 5842 5839 5836 5836 5836 5835 5834 5833 5833 5831 5830 5827 5824 5813 5804 5794 5782 5774 5762 5749 5737 5725 5715 5704 5694 5682 5672 5664 5651 5638 5630 5623 5614 5603 5595 5592 5589 5586 5581 5583
5852 5848 5845 5843 5840 5838 5839 5838 5837 5836 5837 5836 5834 5831 5828 5822 5809 5801 5792 5782 5773 5760 5748 5737 5729 5715 5704 5693 5682 5672 5659 5647 5635 5626 5618 5610 5604 5594 5589 5589 5583 5582 5578
5854 5850 5848 5844 5843 5841 5840 5839 5839 5838 5839 5838 5836 5833 5828 5816 5807 5799 5790 5781 5770 5759 5748 5737 5727 5714 5705 5696 5686 5675 5663 5652 5637 5628 5618 5610 5603 5595 5590 5590 5585 5588 5579
5856 5853 5850 5848 5845 5844 5841 5841 5841 5840 5840 5840 5838 5833 5824 5811 5805 5797 5790 5778 5767 5757 5746 5735 5725 5715 5703 5694 5687 5674 5663 5650 5635 5624 5617 5610 5603 5595 5590 5591 5590 5591 5592
5856 5854 5852 5851 5847 5846 5846 5844 5844 5843 5842 5843 5837 5832 5821 5810 5801 5796 5789 5779 5765 5756 5744 5732 5722 5715 5702 5693 5688 5678 5667 5654 5643 5632 5623 5615 5609 5603 5597 5593 5590 5589 5587
5858 5856 5853 5852 5851 5851 5848 5847 5847 5845 5844 5840 5833 5827 5819 5810 5798 5793 5785 5778 5769 5757 5747 5736 5725 5711 5702 5693 5688 5680 5670 5660 5646 5637 5629 5623 5617 5611 5605 5595 5589 5586 5583
5858 5856 5853 5851 5852 5852 5850 5849 5848 5845 5840 5834 5828 5820 5814 5806 5797 5789 5783 5777 5767 5759 5748 5739 5726 5711 5702 5694 5689 5677 5669 5663 5653 5642 5634 5627 5622 5617 5608 5598 5589 5584 5578
5855 5853 5852 5851 5852 5851 5850 5850 5845 5842 5837 5830 5824 5817 5809 5803 5793 5784 5777 5770 5762 5755 5747 5736 5722 5711 5702 5695 5686 5678 5674 5666 5656 5647 5638 5631 5624 5618 5613 5608 5598 5590 5582
5850 5850 5851 5852 5851 5853 5853 5852 5847 5842 5836 5830 5824 5816 5806 5798 5790 5783 5774 5766 5756 5750 5738 5731 5722 5715 5710 5699 5689 5682 5677 5669 5660 5650 5640 5633 5628 5623 5619 5616 5609 5599 5595
5850 5851 5852 5853 5851 5850 5853 5851 5849 5847 5844 5837 5831 5824 5812 5801 5795 5789 5782 5771 5762 5751 5741 5731 5725 5718 5709 5700 5693 5685 5676 5669 5661 5653 5643 5637 5632 5626 5620 5618 5614 5608 5601
5848 5850 5853 5852 5850 5848 5841 5839 5833 5838 5837 5831 5831 5830 5819 5812 5801 5790 5781 5772 5761 5748 5742 5735 5728 5720 5712 5704 5695 5687 5679 5670 5663 5656 5649 5640 5632 5629 5625 5620 5619 5614 5606
5842 5846 5847 5846 5840 5836 5836 5835 5828 5821 5818 5825 5820 5815 5815 5809 5792 5786 5773 5766 5759 5749 5746 5738 5731 5723 5715 5707 5700 5695 5684 5674 5665 5659 5652 5644 5638 5632 5630 5623 5620 5618 5612
5835 5831 5837 5835 5835 5833 5831 5830 5826 5820 5817 5815 5806 5802 5799 5794 5788 5779 5771 5758 5749 5747 5747 5739 5732 5726 5720 5712 5705 5698 5688 5677 5669 5662 5656 5649 5640 5634 5631 5628 5621 5619 5617
5821 5823 5829 5827 5826 5826 5824 5822 5819 5813 5811 5806 5797 5791 5781 5779 5774 5774 5771 5770 5760 5752 5746 5739 5733 5727 5721 5714 5707 5701 5691 5682 5673 5665 5659 5653 5645 5638 5632 5625 5621 5615 5614
5807 5808 5815 5818 5815 5815 5816 5811 5810 5807 5801 5796 5793 5792 5778 5769 5765 5762 5767 5768 5759 5752 5746 5741 5733 5727 5723 5718 5711 5704 5695 5683 5674 5668 5661 5655 5650 5643 5634 5629 5625 5620 5615
5783 5794 5800 5805 5807 5809 5809 5803 5803 5800 5796 5792 5791 5789 5783 5785 5773 5765 5761 5760 5756 5754 5746 5741 5733 5726 5721 5715 5708 5702 5698 5690 5681 5673 5663 5657 5653 5648 5638 5631 5625 5623 5617
5767 5774 5787 5792 5796 5794 5796 5793 5790 5789 5787 5784 5784 5777 5769 5773 5775 5768 5759 5757 5757 5751 5749 5740 5735 5728 5722 5717 5709 5702 5696 5692 5684 5676 5668 5660 5654 5650 5643 5635 5629 5622 5619
5752 5761 5768 5775 5778 5780 5781 5781 5779 5779 5779 5778 5773 5763 5759 5763 5764 5761 5758 5748 5756 5745 5742 5739 5734 5728 5722 5715 5710 5706 5702 5693 5685 5680 5673 5663 5655 5650 5647 5639 5632 5627 5622
5732 5740 5746 5755 5762 5768 5767 5768 5768 5767 5770 5769 5764 5757 5752 5756 5755 5755 5753 5748 5748 5746 5740 5736 5732 5726 5718 5712 5708 5703 5699 5692 5686 5677 5674 5669 5659 5648 5648 5644 5637 5627 5620
5710 5720 5730 5736 5741 5746 5754 5758 5758 5758 5758 5760 5757 5753 5749 5748 5746 5748 5749 5747 5746 5743 5740 5733 5727 5722 5716 5710 5708 5703 5698 5692 5686 5681 5672 5669 5664 5654 5650 5645 5637 5630 5629
5690 5701 5708 5714 5720 5730 5742 5745 5749 5750 5750 5750 5751 5749 5746 5743 5743 5740 5746 5743 5743 5738 5732 5729 5725 5719 5713 5708 5703 5701 5695 5689 5683 5679 5674 5668 5663 5657 5651 5647 5640 5634 5627